User: anonymous   Login
Location: Unspecified
(0.0000°N, 0.0000°E)
Time: 21:37:09
(UTC+00:00)
Language:

SICRAL 2 - Orbit

View from above orbital plane
View from above orbital plane
View from above satellite
View from above satellite

Ground track
Ground track

The orbit data is extracted from the following two-line orbital elements,

1 40614U 15022B   24107.65090923 0.00000000  00000-0  00000-0 0    06
2 40614   0.0110 116.5660 0003345 335.9961  24.0039  1.00270000    03
Epoch (UTC): 16 April 2024 15:37:18
Eccentricity: 0.0003345
inclination: 0.0110°
perigee height: 35772 km
apogee height: 35801 km
right ascension of ascending node: 116.5660°
argument of perigee: 335.9961°
revolutions per day: 1.00270000
mean anomaly at epoch: 24.0039°
orbit number at epoch: 0

The dashed part of the orbit path shows where the satellite is in the earth's shadow,  

DLR